WWA1033 KRAP-KDEN

Flight info

Callsign WWA1033
Flight time N/A
Altitude 30000
Route NYTRO AALLE4
Aircraft B738/M-VGDW/C

Departure

Time 2026-05-07 00:55
Airport Rapid City Regional Airport (KRAP)

Arrival

Time N/A
Airport Denver International Airport (KDEN)
Time Latitude Longitude Altitude Speed Heading
2026-05-07 00:31 44.03873 -103.05989 3171 ft 0 kts 326°
2026-05-07 00:44 44.03869 -103.05985 3173 ft 2 kts 326°
2026-05-07 00:44 44.03855 -103.05972 3172 ft 2 kts 326°
2026-05-07 00:45 44.03841 -103.05959 3172 ft 2 kts 326°
2026-05-07 00:45 44.03840 -103.05957 3172 ft 0 kts 326°
2026-05-07 00:47 44.03840 -103.05958 3172 ft 0 kts 326°
2026-05-07 00:48 44.03842 -103.05958 3172 ft 1 kts 345°
2026-05-07 00:48 44.03851 -103.05945 3172 ft 5 kts 43°
2026-05-07 00:48 44.03898 -103.05895 3170 ft 12 kts 32°
2026-05-07 00:49 44.03980 -103.05822 3170 ft 15 kts 50°
2026-05-07 00:49 44.04031 -103.05728 3171 ft 10 kts 30°
2026-05-07 00:49 44.04099 -103.05744 3172 ft 10 kts 336°
2026-05-07 00:49 44.04164 -103.05788 3173 ft 11 kts 332°
2026-05-07 00:50 44.04240 -103.05846 3176 ft 13 kts 330°
2026-05-07 00:50 44.04322 -103.05907 3177 ft 13 kts 333°
2026-05-07 00:50 44.04401 -103.05965 3179 ft 13 kts 331°
2026-05-07 00:50 44.04478 -103.06023 3179 ft 12 kts 332°
2026-05-07 00:51 44.04552 -103.06078 3183 ft 12 kts 332°
2026-05-07 00:51 44.04625 -103.06133 3183 ft 12 kts 332°
2026-05-07 00:51 44.04697 -103.06185 3184 ft 11 kts 331°
2026-05-07 00:51 44.04766 -103.06237 3185 ft 11 kts 332°
2026-05-07 00:52 44.04833 -103.06287 3183 ft 11 kts 332°
2026-05-07 00:52 44.04899 -103.06334 3186 ft 11 kts 333°
2026-05-07 00:52 44.04963 -103.06382 3189 ft 10 kts 328°
2026-05-07 00:52 44.05022 -103.06433 3188 ft 10 kts 329°
2026-05-07 00:53 44.05081 -103.06481 3192 ft 10 kts 332°
2026-05-07 00:53 44.05141 -103.06520 3192 ft 9 kts 338°
2026-05-07 00:53 44.05200 -103.06555 3196 ft 9 kts 330°
2026-05-07 00:53 44.05252 -103.06604 3197 ft 9 kts 322°
2026-05-07 00:54 44.05308 -103.06629 3199 ft 9 kts 11°
2026-05-07 00:54 44.05349 -103.06573 3197 ft 8 kts 63°
2026-05-07 00:54 44.05358 -103.06498 3200 ft 8 kts 111°
2026-05-07 00:54 44.05247 -103.06400 3196 ft 48 kts 152°
2026-05-07 00:55 44.04696 -103.05988 3187 ft 130 kts 152°
2026-05-07 00:55 44.03720 -103.05270 3447 ft 171 kts 154°
2026-05-07 00:55 44.02685 -103.04573 4652 ft 164 kts 155°
2026-05-07 00:55 44.01536 -103.03945 5226 ft 197 kts 161°
2026-05-07 00:56 44.00150 -103.03244 5554 ft 219 kts 161°
2026-05-07 00:56 43.98698 -103.02495 6148 ft 227 kts 163°
2026-05-07 00:56 43.97137 -103.01979 6698 ft 234 kts 176°
2026-05-07 00:56 43.95491 -103.01840 7254 ft 242 kts 181°
2026-05-07 00:57 43.93756 -103.01786 7802 ft 257 kts 182°
2026-05-07 00:57 43.91926 -103.01737 8414 ft 270 kts 182°
2026-05-07 00:57 43.90003 -103.01766 9020 ft 282 kts 185°
2026-05-07 00:57 43.88011 -103.01892 9619 ft 292 kts 186°
2026-05-07 00:58 43.85942 -103.02045 10207 ft 304 kts 187°
2026-05-07 00:58 43.83784 -103.02205 10769 ft 317 kts 187°
2026-05-07 00:58 43.81571 -103.02362 11340 ft 329 kts 187°
2026-05-07 00:58 43.79223 -103.02521 12001 ft 337 kts 187°
2026-05-07 00:59 43.74490 -103.02821 13545 ft 347 kts 187°
2026-05-07 00:59 43.72032 -103.02971 14300 ft 351 kts 187°
2026-05-07 00:59 43.69618 -103.03117 15020 ft 354 kts 187°
2026-05-07 01:00 43.67149 -103.03265 15762 ft 356 kts 187°
2026-05-07 01:00 43.64664 -103.03414 16516 ft 359 kts 187°
2026-05-07 01:00 43.62157 -103.03564 17190 ft 364 kts 187°
2026-05-07 01:00 43.59599 -103.03719 17781 ft 371 kts 187°
2026-05-07 01:01 43.56994 -103.03877 18388 ft 378 kts 187°
2026-05-07 01:01 43.54330 -103.04038 18829 ft 388 kts 187°
2026-05-07 01:01 43.51602 -103.04202 19270 ft 397 kts 186°
2026-05-07 01:01 43.48809 -103.04370 19714 ft 406 kts 186°
2026-05-07 01:02 43.45964 -103.04540 20167 ft 413 kts 186°
2026-05-07 01:02 43.43064 -103.04712 20629 ft 421 kts 186°
2026-05-07 01:02 43.40116 -103.04886 21095 ft 427 kts 186°
2026-05-07 01:02 43.37120 -103.05063 21564 ft 434 kts 186°
2026-05-07 01:03 43.34078 -103.05243 21954 ft 442 kts 186°
2026-05-07 01:03 43.30978 -103.05427 22341 ft 450 kts 186°
2026-05-07 01:03 43.27829 -103.05613 22721 ft 457 kts 186°
2026-05-07 01:03 43.24632 -103.05802 23108 ft 463 kts 186°
2026-05-07 01:04 43.21396 -103.05993 23502 ft 469 kts 185°
2026-05-07 01:04 43.18115 -103.06186 23840 ft 474 kts 185°
2026-05-07 01:04 43.14801 -103.06380 24160 ft 479 kts 185°
2026-05-07 01:04 43.11455 -103.06577 24473 ft 484 kts 185°
2026-05-07 01:05 43.08075 -103.06775 24771 ft 489 kts 185°
2026-05-07 01:05 43.04661 -103.06976 25068 ft 493 kts 185°
2026-05-07 01:05 43.01210 -103.07179 25290 ft 499 kts 185°
2026-05-07 01:05 42.97721 -103.07384 25503 ft 505 kts 185°
2026-05-07 01:06 42.94192 -103.07591 25712 ft 510 kts 185°
2026-05-07 01:06 42.90677 -103.07796 25933 ft 515 kts 185°
2026-05-07 01:06 42.87083 -103.08006 26161 ft 519 kts 185°
2026-05-07 01:06 42.83462 -103.08217 26383 ft 523 kts 185°
2026-05-07 01:07 42.79818 -103.08429 26610 ft 525 kts 185°
2026-05-07 01:07 42.76171 -103.08640 26833 ft 525 kts 185°
2026-05-07 01:07 42.72521 -103.08852 27068 ft 525 kts 185°
2026-05-07 01:07 42.68873 -103.09063 27304 ft 525 kts 185°
2026-05-07 01:08 42.65225 -103.09274 27541 ft 525 kts 185°
2026-05-07 01:08 42.61577 -103.09486 27779 ft 524 kts 185°
2026-05-07 01:08 42.57932 -103.09697 28029 ft 524 kts 185°
2026-05-07 01:08 42.54300 -103.09907 28368 ft 521 kts 184°
2026-05-07 01:09 42.50685 -103.10115 28712 ft 519 kts 185°
2026-05-07 01:09 42.47090 -103.10322 29103 ft 516 kts 185°
2026-05-07 01:09 42.43511 -103.10529 29517 ft 514 kts 185°
2026-05-07 01:09 42.39938 -103.10735 29932 ft 514 kts 185°
2026-05-07 01:10 42.36350 -103.10943 30077 ft 519 kts 184°
2026-05-07 01:10 42.29076 -103.11363 30058 ft 525 kts 184°
2026-05-07 01:11 42.21800 -103.11778 30041 ft 521 kts 184°
2026-05-07 01:11 42.14580 -103.12190 30049 ft 518 kts 184°
2026-05-07 01:12 42.07387 -103.12600 30049 ft 517 kts 184°
2026-05-07 01:12 42.00203 -103.13010 30050 ft 517 kts 184°
2026-05-07 01:13 41.93001 -103.13420 30051 ft 519 kts 184°
2026-05-07 01:13 41.85783 -103.13829 30051 ft 520 kts 184°
2026-05-07 01:14 41.78542 -103.14238 30055 ft 523 kts 184°
2026-05-07 01:14 41.71199 -103.14654 30061 ft 532 kts 184°
2026-05-07 01:15 41.63857 -103.15066 30047 ft 531 kts 184°
2026-05-07 01:15 41.56610 -103.15468 30042 ft 514 kts 184°
2026-05-07 01:16 41.49521 -103.15747 30035 ft 503 kts 182°
2026-05-07 01:16 41.42570 -103.15979 30054 ft 499 kts 182°
2026-05-07 01:17 41.35625 -103.16234 30073 ft 500 kts 182°
2026-05-07 01:17 41.28668 -103.16494 30074 ft 500 kts 182°
2026-05-07 01:18 41.21706 -103.16752 30075 ft 500 kts 182°
2026-05-07 01:18 41.14751 -103.17010 30075 ft 500 kts 182°
2026-05-07 01:19 41.07808 -103.17267 30070 ft 498 kts 183°
2026-05-07 01:19 41.04403 -103.17921 30066 ft 493 kts 199°
2026-05-07 01:19 41.01281 -103.19683 30069 ft 485 kts 216°
2026-05-07 01:19 40.98548 -103.22255 29814 ft 482 kts 222°
2026-05-07 01:20 40.95899 -103.24979 29130 ft 481 kts 223°
2026-05-07 01:20 40.93285 -103.27706 28560 ft 476 kts 223°
2026-05-07 01:20 40.90691 -103.30399 28014 ft 472 kts 223°
2026-05-07 01:20 40.88112 -103.33043 27560 ft 466 kts 222°
2026-05-07 01:21 40.85565 -103.35626 27219 ft 457 kts 222°
2026-05-07 01:21 40.83055 -103.38150 26878 ft 450 kts 222°
2026-05-07 01:21 40.80581 -103.40629 26535 ft 444 kts 222°
2026-05-07 01:21 40.78138 -103.43072 26207 ft 438 kts 222°
2026-05-07 01:22 40.75708 -103.45504 25893 ft 441 kts 222°
2026-05-07 01:22 40.73254 -103.47961 25580 ft 445 kts 221°
2026-05-07 01:22 40.70818 -103.50396 25241 ft 445 kts 221°
2026-05-07 01:22 40.68364 -103.52842 24881 ft 440 kts 221°
2026-05-07 01:23 40.65929 -103.55267 24525 ft 437 kts 221°
2026-05-07 01:23 40.63511 -103.57673 24172 ft 434 kts 221°
2026-05-07 01:23 40.61106 -103.60065 23828 ft 432 kts 221°
2026-05-07 01:23 40.58717 -103.62439 23440 ft 429 kts 221°
2026-05-07 01:24 40.56342 -103.64799 23041 ft 427 kts 221°
2026-05-07 01:24 40.53979 -103.67144 22629 ft 424 kts 221°
2026-05-07 01:24 40.51630 -103.69474 22233 ft 422 kts 221°
2026-05-07 01:24 40.49294 -103.71788 21841 ft 419 kts 221°
2026-05-07 01:25 40.46975 -103.74082 21504 ft 415 kts 221°
2026-05-07 01:25 40.44886 -103.76599 21208 ft 401 kts 238°
2026-05-07 01:25 40.43410 -103.79612 20983 ft 387 kts 245°
2026-05-07 01:25 40.42063 -103.82626 20717 ft 379 kts 245°
2026-05-07 01:26 40.40749 -103.85583 20460 ft 372 kts 245°
2026-05-07 01:26 40.39450 -103.88476 20204 ft 365 kts 245°
2026-05-07 01:26 40.38161 -103.91316 19948 ft 359 kts 245°
2026-05-07 01:26 40.36888 -103.94099 19700 ft 353 kts 245°
2026-05-07 01:27 40.35633 -103.96835 19451 ft 348 kts 245°
2026-05-07 01:27 40.34385 -103.99546 19214 ft 346 kts 245°
2026-05-07 01:27 40.33146 -104.02243 18970 ft 345 kts 245°
2026-05-07 01:27 40.31899 -104.04924 18709 ft 345 kts 242°
2026-05-07 01:28 40.30269 -104.07278 18441 ft 354 kts 225°
2026-05-07 01:28 40.28355 -104.09304 18167 ft 354 kts 223°
2026-05-07 01:28 40.26428 -104.11298 17867 ft 353 kts 223°
2026-05-07 01:28 40.24513 -104.13294 17568 ft 351 kts 224°
2026-05-07 01:29 40.22621 -104.15286 17275 ft 347 kts 224°
2026-05-07 01:29 40.20758 -104.17265 16944 ft 343 kts 224°
2026-05-07 01:29 40.18916 -104.19232 16607 ft 340 kts 224°
2026-05-07 01:29 40.17090 -104.21183 16272 ft 338 kts 224°
2026-05-07 01:30 40.15278 -104.23116 15946 ft 335 kts 224°
2026-05-07 01:30 40.13480 -104.25034 15614 ft 332 kts 225°
2026-05-07 01:30 40.11699 -104.26929 15334 ft 328 kts 225°
2026-05-07 01:30 40.09970 -104.28765 15124 ft 322 kts 225°
2026-05-07 01:31 40.08570 -104.30253 14938 ft 318 kts 225°
2026-05-07 01:31 40.06864 -104.32066 14723 ft 314 kts 225°
2026-05-07 01:31 40.05178 -104.33858 14507 ft 311 kts 225°